Lawrence, KS

3:19 PM CST on February 22, 2018 (GMT -0600)
Lawrence Municipal

Weather History for KLWC - December, 2013

Change the Weather History Date:

Monday, December 23, 2013

  Actual Average Record
Temperature  
Mean Temperature 7 °F 30 °F  
Max Temperature 16 °F 40 °F 59 °F (2015)
Min Temperature -3 °F 20 °F -3 °F (2013)
Degree Days  
Heating Degree Days 58 35  
Month to date heating degree days 838 749  
Since 1 July heating degree days 1868 1757  
Cooling Degree Days 0 0  
Month to date cooling degree days 0 0  
Year to date cooling degree days 1492 1371  
Moisture  
Dew Point 1 °F    
Average Humidity 73    
Maximum Humidity 87    
Minimum Humidity 59    
Precipitation  
Precipitation T in 0.06 in 0.09 in (2016)
Month to date precipitation 0.46 1.08  
Year to date precipitation 28.41 38.16  
Sea Level Pressure  
Sea Level Pressure 30.62 in    
Wind  
Wind Speed 5 mph (NW)    
Max Wind Speed 14 mph    
Max Gust Speed 16 mph    
Visibility 9 miles    
Events Snow    
T = Trace of Precipitation, MM = Missing Value Source: NWS Daily Summary

Daily Weather History Graph

Daily Weather History Graph

Search for Another Location

Airport or City:

Trip Planner

Search our weather history database for the weather conditions in past years. The results will help you decide how hot, cold, wet, or windy it might be!

Date:

Astronomy

Dec. 23, 2013 Rise Set
Actual Time 7:37 AM CST 5:03 PM CST
Civil Twilight 7:07 AM CST 5:33 PM CST
Nautical Twilight 6:33 AM CST 6:06 PM CST
Astronomical Twilight 6:01 AM CST 6:39 PM CST
Moon 11:10 PM CST (12/23) 11:05 AM CST (12/23)
Length of Visible Light 10h 25m
Length of Day
9h 25m
Waning Gibbous, 68% of the Moon is Illuminated
Dec 23
Waning Gibbous
Dec 25
Last Quarter
Jan 1
New
Jan 7
First Quarter
Jan 15
Full

Hourly Weather History & Observations

Time (CST) Temp. Windchill Dew Point Humidity Pressure Visibility Wind Dir Wind Speed Gust Speed Precip Events Conditions
12:52 AM -0.0 °F - -6.0 °F 76% 30.43 in 8.0 mi Calm Calm - N/A   Clear
1:52 AM -2.0 °F -12.2 °F -8.0 °F 76% 30.48 in 9.0 mi NW 4.6 mph - N/A   Clear
2:52 AM 1.0 °F -11.7 °F -5.1 °F 75% 30.50 in 9.0 mi NW 6.9 mph - N/A   Mostly Cloudy
3:52 AM 3.9 °F -9.4 °F -0.9 °F 80% 30.52 in 10.0 mi NW 8.1 mph - N/A   Overcast
4:52 AM 9.0 °F -0.9 °F 1.9 °F 73% 30.53 in 10.0 mi NW 5.8 mph - N/A   Overcast
5:52 AM 10.9 °F -0.8 °F 3.9 °F 73% 30.56 in 10.0 mi NNW 8.1 mph - N/A   Overcast
6:52 AM 10.0 °F -0.9 °F 1.9 °F 70% 30.58 in 10.0 mi NNW 6.9 mph - N/A   Overcast
7:52 AM 8.1 °F -2.0 °F 1.0 °F 73% 30.61 in 10.0 mi NNW 5.8 mph - N/A   Overcast
8:52 AM 8.1 °F -3.2 °F 1.0 °F 73% 30.66 in 10.0 mi WNW 6.9 mph - N/A   Mostly Cloudy
9:52 AM 12.0 °F -2.0 °F 1.9 °F 64% 30.69 in 5.0 mi NNW 11.5 mph - N/A   Haze
10:52 AM 12.9 °F 0.7 °F 3.9 °F 67% 30.70 in 6.0 mi NNW 9.2 mph - 0.00 in   Haze
11:23 AM 12.9 °F 1.6 °F 5.0 °F 71% 30.64 in 4.0 mi NW 8.1 mph - N/A   Haze
11:33 AM 12.9 °F 0.7 °F 3.9 °F 67% 30.64 in 8.0 mi NNW 9.2 mph - N/A   Overcast
11:43 AM 12.9 °F -0.9 °F 3.0 °F 65% 30.63 in 6.0 mi NNW 11.5 mph - N/A   Haze
11:52 AM 12.9 °F -0.9 °F 3.0 °F 65% 30.69 in 4.0 mi NNW 11.5 mph - 0.00 in Snow Light Snow
12:12 PM 12.9 °F -0.2 °F 1.9 °F 62% 30.62 in 10.0 mi NNW 10.4 mph - 0.00 in   Overcast
12:52 PM 12.9 °F 1.6 °F 3.0 °F 65% 30.67 in 10.0 mi WNW 8.1 mph - 0.00 in   Mostly Cloudy
1:52 PM 15.1 °F 5.2 °F 3.9 °F 61% 30.64 in 10.0 mi NW 6.9 mph - N/A   Mostly Cloudy
2:01 PM 15.1 °F 7.7 °F 3.9 °F 61% 30.59 in 10.0 mi NW 4.6 mph - N/A   Scattered Clouds
2:33 PM 14.0 °F 2.9 °F 3.9 °F 64% 30.59 in 10.0 mi West 8.1 mph - N/A   Mostly Cloudy
2:42 PM 14.0 °F 2.9 °F 3.9 °F 64% 30.59 in 10.0 mi West 8.1 mph - N/A   Scattered Clouds
2:52 PM 14.0 °F 3.9 °F 3.9 °F 64% 30.64 in 10.0 mi West 6.9 mph - N/A   Partly Cloudy
3:52 PM 12.9 °F 6.9 °F 1.9 °F 62% 30.65 in 10.0 mi NW 3.5 mph - N/A   Clear
4:52 PM 8.1 °F 1.4 °F -0.0 °F 70% 30.66 in 10.0 mi NW 3.5 mph - N/A   Clear
5:52 PM 3.9 °F - -0.0 °F 84% 30.67 in 10.0 mi Calm Calm - N/A   Clear
6:52 PM 1.9 °F - -2.9 °F 80% 30.67 in 10.0 mi Calm Calm - N/A   Mostly Cloudy
7:52 PM 6.1 °F - -0.0 °F 76% 30.68 in 10.0 mi Calm Calm - N/A   Overcast
8:52 PM 5.0 °F - -0.9 °F 76% 30.69 in 10.0 mi Calm Calm - N/A   Overcast
9:52 PM 7.0 °F 0.1 °F 1.0 °F 77% 30.67 in 10.0 mi East 3.5 mph - N/A   Overcast
10:52 PM 3.0 °F -4.4 °F -2.0 °F 80% 30.67 in 10.0 mi East 3.5 mph - N/A   Partly Cloudy
11:52 PM 1.0 °F - -5.1 °F 75% 30.66 in 8.0 mi Calm Calm - N/A   Partly Cloudy